159P/LONEOS

Epoch 2004 Mar. 16.0 TT = JDT 2453080.5  

T 2004 Mar. 3.07424 TT                                  Nakano

q   3.6508445            (2000.0)            P               Q

n   0.06886615     Peri.    4.99851     +0.50347475     -0.80004741

a   5.8947519      Node    55.16130     +0.77830012     +0.25598982

e   0.3806619      Incl.   23.42151     +0.37518276     +0.54258027

P  14.31

From 67 observations 1989-2004, mean residual 0".55.

Residuals in seconds of arc 

1989/                     031101 704  0.4+  0.3+    031217 699  0.1-  0.4-  

891217 261  0.4-  0.1-    031101 704  0.0   0.1+    031217 699  0.3-  0.0   

891217 261  0.9+  0.8-    031118 703  0.8+  0.3-    031217 699  1.3+  0.0   

1991/                     031118 703  1.1-  0.2+    031217 699  0.9+  0.6+  

910219 261  0.3-  1.0+    031118 703  0.2+  0.1-    031218 246  0.4+  0.0   

910219 261  0.6+  0.1-    031118 703  1.5-  0.3-    031218 246  0.6+  0.6-  

2003/                     031119 644  0.6+  0.1+    031218 246  0.1+  0.2+  

031016 699  0.3-  0.6+    031119 644  0.2+  0.2-    031218 246  0.3+  0.5-  

031016 699  0.7+  0.5+    031119 644  0.0   0.1+    031218 246  0.4+  0.5-  

031016 699  1.1-  0.6-    031121 699  0.6+  0.8-    031218 246  0.2+  0.3-  

031016 699 (2.6-  2.5-)   031121 699  0.5-  0.4-    031218 246  0.3+  0.1-  

031021 704  0.1+  0.8+    031121 699  0.3+  0.5-    031218 246  0.0   0.2-  

031021 704  0.9-  0.4+    031121 699  0.0   0.4-    031221 704  0.2-  0.4+  

031021 704  1.4-  0.4-    031130 704  0.3-  0.3+    031221 704  0.5+  0.5+  

031021 644  0.6-  0.3-    031130 696  0.2-  0.2-    031221 704  0.2+  0.4+  

031021 644  0.1+  0.2-    031130 696  0.1-  0.1-    031221 704  0.1+  0.2+  

031021 644  0.1+  0.6-    031130 704  0.9-  0.5+    031223 704  0.3-  0.5+  

031023 699  1.1-  0.5-    031130 704  0.1-  0.5+    031223 704  0.3+  1.7+  

031023 699  0.8-  0.7+    031208 204  0.3+  0.7-    031223 704  0.0   0.4+  

031023 699  0.6-  0.4-    031208 204  0.3+  0.0     031228 360  1.2+  0.8+  

031023 699  0.4+  1.0-    031208 204  1.0-  0.7+    031228 360  0.6+  0.6+  

031101 704  1.0-  0.4-    031211 620  0.1-  0.3-    2004/                   

031101 704  0.3+  0.3+    031211 620  0.8+  0.4-    040105 413  0.1+  0.1-  

031101 704  0.3+  0.3+    031212 620  0.3+  0.1-    040105 413  0.3+  0.1+  



NAKANO

         **** Don't distribute anyone except personal use only ****

                (C) Copyright 2004 OAA/ComputingSection

write mail from CFAD0::NAKANO on 2004-01-21 21:27:50(JST).

 





–ß‚è‚Ü‚·B